All
Coober Pedy Airport (Coober Pedy, South Australia) CPD Weather
|
Coober Pedy, South Australia (CPD / YCBP)
Clear skies
Light winds |
|
77 °F |
CPD Terminal Area Forecast
| Date | Time (ACST) | Flight Rules | Wind Dir. | Speed | Type | Height AGL (ft) | Visibility | Remarks | ||||||
|---|---|---|---|---|---|---|---|---|---|---|---|---|---|---|
| 04-Sep | 10:30PM | VFR | 240° | 12 kt | >= 6 miles | Light rain showers, No significant clouds. | ||||||||
Recent CPD METAR history
| Date | Time (ACST) | Flight Rules | Wind Dir. | Speed | Type | Height AGL (ft) | Visibility | Temp (°C) | Temp (°F) | Dew Point (°C) | Dew Point (°F) | Rel. Humid. | Pressure | Density Altitude | Remarks |
|---|---|---|---|---|---|---|---|---|---|---|---|---|---|---|---|
| 04-Sep | 10:30PM | VFR | 340° | 7 kt | 10000 meters | 25° | 77° | 6° | 42° | 30% | 1013 mb | 1,946 ft | |||
| 04-Sep | 09:30PM | VFR | 240° | 1 kt | 10000 meters | 24° | 75° | 7° | 44° | 34% | 1013 mb | 1,826 ft | |||
| 04-Sep | 08:30PM | VFR | 230° | 6 kt | 10000 meters | 25° | 77° | 6° | 42° | 30% | 1012 mb | 1,976 ft | |||
| 04-Sep | 07:30PM | VFR | 220° | 6 kt | 10000 meters | 26° | 78° | 6° | 42° | 28% | 1012 mb | 2,096 ft | |||
| 04-Sep | 06:30PM | VFR | 210° | 8 kt | 10000 meters | 28° | 82° | 5° | 41° | 23% | 1011 mb | 2,365 ft | |||
| 04-Sep | 05:30PM | VFR | 230° | 14 kt | Few |
7,900 |
10000 meters | 30° | 86° | 3° | 37° | 18% | 1011 mb | 2,605 ft | |
| 04-Sep | 04:30PM | VFR | 260° | 12 kt | 10000 meters | 32° | 89° | 3° | 37° | 16% | 1011 mb | 2,845 ft | |||
| 04-Sep | 03:38PM | VFR | 280° | 19 kt | 10000 meters | 33° | 91° | 1° | 33° | 13% | 1010 mb | 2,995 ft | |||
| 04-Sep | 02:30PM | VFR | 310° | 21 kt | 10000 meters | 34° | 93° | 3° | 37° | 14% | 1010 mb | 3,115 ft | |||
| 04-Sep | 01:32PM | VFR | 310° | 20 kt | 10000 meters | 34° | 93° | 3° | 37° | 14% | 1011 mb | 3,085 ft | Wind gusting to 30 KT | ||
| 04-Sep | 12:30PM | VFR | 340° | 22 kt | 10000 meters | 34° | 93° | 5° | 41° | 16% | 1012 mb | 3,056 ft | Wind gusting to 32 KT | ||
| 04-Sep | 11:30AM | VFR | 10° | 20 kt | 10000 meters | 30° | 86° | 7° | 44° | 24% | 1013 mb | 2,546 ft | |||
| 04-Sep | 10:30AM | VFR | 10° | 21 kt | 10000 meters | 26° | 78° | 8° | 46° | 32% | 1014 mb | 2,037 ft | |||
| 04-Sep | 09:30AM | VFR | 30° | 20 kt | 10000 meters | 22° | 71° | 8° | 46° | 41% | 1015 mb | 1,527 ft | |||
| 04-Sep | 08:30AM | VFR | 40° | 21 kt | 10000 meters | 19° | 66° | 7° | 44° | 46% | 1015 mb | 1,167 ft | |||
| 04-Sep | 07:30AM | VFR | 50° | 17 kt | 10000 meters | 17° | 62° | 7° | 44° | 52% | 1015 mb | 927 ft | |||
| 04-Sep | 06:30AM | VFR | 50° | 18 kt | 10000 meters | 16° | 60° | 7° | 44° | 55% | 1015 mb | 807 ft | |||
| 04-Sep | 05:30AM | VFR | 50° | 15 kt | 10000 meters | 17° | 62° | 7° | 44° | 52% | 1015 mb | 927 ft | |||
| 04-Sep | 04:30AM | VFR | 60° | 14 kt | 10000 meters | 17° | 62° | 7° | 44° | 52% | 1015 mb | 927 ft | |||
| 04-Sep | 03:30AM | VFR | 50° | 13 kt | 10000 meters | 17° | 62° | 7° | 44° | 52% | 1015 mb | 927 ft | |||
| 04-Sep | 02:30AM | VFR | 50° | 17 kt | 10000 meters | 18° | 64° | 7° | 44° | 49% | 1015 mb | 1,047 ft | |||
| 04-Sep | 01:30AM | VFR | 50° | 18 kt | 10000 meters | 19° | 66° | 7° | 44° | 46% | 1016 mb | 1,138 ft | |||
| 04-Sep | 12:30AM | VFR | 50° | 20 kt | 10000 meters | 19° | 66° | 7° | 44° | 46% | 1016 mb | 1,138 ft | |||
| 03-Sep | 11:30PM | VFR | 60° | 18 kt | 10000 meters | 19° | 66° | 8° | 46° | 49% | 1017 mb | 1,108 ft |
Login
| Your browser is unsupported. upgrade your browser |
